Eland, WI

1:27 PM CDT on August 30, 2015 (GMT -0500)
Wittenberg Wi. | | Change Station
CLOSE
Current Station
Personal Weather Station
Location: Wittenberg, WI
Elevation: 1191 ft
Nearby Weather Stations

Elev 1191 ft 44.83 °N, 89.17 °W | Updated 36 seconds ago

Partly Cloudy
Partly Cloudy
73.8 °F
Feels Like 75 °F
N
2.5
Wind Variable Wind from WSW
Gusts 2.5 mph

Today
High -- | Low -- °F
--% Chance of Precip.
Yesterday
High -- | Low -- °F
Precip. -- in
6:16 AM 7:37 PM
Full, 99% visible
Pressure 30.04 in
Visibility 10.0 miles
Clouds Scattered Clouds 1600 ft
Heat Index 75 °F
Dew Point 65 °F
Humidity 74%
Rainfall 0.00 in
Snow Depth Not available.
UV 4.0 out of 12
Pollen 10.00 out of 12
Air Quality Not available.
Flu Activity Not available.
METAR KAUW 301754Z AUTO 21007KT 10SM SCT016 22/17 A3003 RMK AO2 SLP172 T02220167 10228 20111 58008
Pressure 30.04 in
Visibility 10.0 miles
Clouds Scattered Clouds 1600 ft
Heat Index 75 °F
Dew Point 65 °F
Humidity 74%
Rainfall 0.00 in
Snow Depth Not available.
UV 4.0 out of 12
Pollen 10.00 out of 12
Air Quality Not available.
Flu Activity Not available.
METAR KAUW 301754Z AUTO 21007KT 10SM SCT016 22/17 A3003 RMK AO2 SLP172 T02220167 10228 20111 58008

10-Day Weather Forecast

×

Almanac

Astronomy

Aug. 30, 2015 Rise Set
Actual Time
Civil Twilight
Nautical Twilight
Astronomical Twilight
Moon
Length of Visible Light
Length of Day
Tomorrow will be .
, % of the Moon is Illuminated

Today's Extremes

State Highs State Lows

Community

WunderPhotos

Upload Photos

1,851,029 photos uploaded!

WunderBlogs® & News

Nearby

Air Quality

  Air Quality AQ Index Pollutant
Not available.

Snow Depth

Station Depth Elevation

Earthquake Activity

City Distance Mag. Time & Date
Minimum magnitude displayed is 2.5.

Coastal Water Temperatures

Place Temperature

Stations

Nearby Weather Stations

Station Location Temp. Windchill Dew Point Humidity Wind Precip. Elev Updated Type